EW9081 Weather Reports


Display with metric or nautical units.
time (UTC)temp
F
wind
direction
speed
MPH
gust
MPH
rain 1hr
in
rain 24hr
in
rain mn
in
humidity
%
barometer
mb
20220523110419 51 224 4.0 10.0 0.00 0.00 0.00 83 1020.8
20220523105417 51 205 4.0 10.0 0.00 0.00 0.00 82 1020.7
20220523104419 52 219 4.0 10.0 0.00 0.00 0.00 82 1020.8
20220523103415 52 316 4.0 10.0 0.00 0.00 0.00 81 1020.8
20220523102418 52 289 3.0 10.0 0.00 0.00 0.00 81 1020.9
20220523101415 52 233 4.0 12.0 0.00 0.00 0.00 80 1020.9
20220523100415 52 223 4.0 10.0 0.00 0.00 0.00 79 1020.9
20220523095415 52 238 3.0 8.0 0.00 0.00 0.00 79 1020.9
20220523094414 52 236 2.0 5.0 0.00 0.00 0.00 78 1020.8
20220523093417 52 212 3.0 7.0 0.00 0.00 0.00 78 1020.8
20220523092414 52 251 2.0 7.0 0.00 0.00 0.00 78 1020.8
20220523091414 52 254 3.0 7.0 0.00 0.00 0.00 77 1020.7
20220523090414 52 263 2.0 7.0 0.00 0.00 0.00 77 1020.7
20220523085415 53 257 3.0 9.0 0.00 0.00 0.00 76 1020.8
20220523084414 53 244 3.0 7.0 0.00 0.00 0.00 76 1020.7
20220523083415 53 241 4.0 9.0 0.00 0.00 0.00 75 1020.4
20220523082416 53 248 3.0 7.0 0.00 0.00 0.00 76 1020.4
20220523081413 53 241 3.0 7.0 0.00 0.00 0.00 75 1020.4
20220523080413 53 264 2.0 7.0 0.00 0.00 0.00 74 1020.3
20220523075412 54 226 3.0 7.0 0.00 0.00 0.00 72 1020.2
20220523074412 54 234 2.0 5.0 0.00 0.00 0.00 71 1020.2
20220523073412 54 244 2.0 6.0 0.00 0.00 0.00 70 1020.2
20220523072412 54 281 2.0 6.0 0.00 0.00 0.00 71 1020.4
20220523071413 54 229 3.0 8.0 0.00 0.00 0.00 72 1020.6
20220523070415 54 242 4.0 9.0 0.00 0.00 0.00 73 1020.4
20220523065412 54 221 4.0 9.0 0.00 0.00 0.00 73 1020.4
20220523064411 54 276 3.0 8.0 0.00 0.00 0.00 74 1020.4
20220523063411 54 232 3.0 9.0 0.00 0.00 0.00 76 1020.2
20220523062411 55 234 5.0 11.0 0.00 0.00 0.00 76 1020.3
20220523061413 55 251 4.0 10.0 0.00 0.00 0.00 74 1020.3
20220523060409 55 292 3.0 8.0 0.00 0.00 0.00 75 1020.4
20220523055411 55 243 4.0 9.0 0.00 0.00 0.00 75 1020.6
20220523054412 55 322 5.0 10.0 0.00 0.00 0.00 75 1020.4
20220523053408 55 240 4.0 10.0 0.00 0.00 0.00 75 1020.3
20220523052409 55 262 5.0 10.0 0.00 0.00 0.00 76 1020.2
20220523051409 55 237 6.0 13.0 0.00 0.00 0.00 75 1020.2
20220523050407 56 233 5.0 10.0 0.00 0.00 0.00 73 1020.1
20220523045407 56 233 6.0 10.0 0.00 0.00 0.00 73 1020.1
20220523044406 56 202 5.0 11.0 0.00 0.00 0.00 72 1020.1
20220523043406 56 236 5.0 12.0 0.00 0.00 0.00 71 1020.1
20220523042407 57 263 4.0 11.0 0.00 0.00 0.00 70 1020.0
20220523041406 57 268 5.0 12.0 0.00 0.00 0.00 70 1020.0
20220523040410 57 197 6.0 13.0 0.00 0.00 0.00 69 1019.9
20220523035404 58 274 6.0 12.0 0.00 0.00 0.00 67 1019.8
20220523034410 58 227 5.0 11.0 0.00 0.00 0.00 65 1019.7
20220523033405 58 230 5.0 11.0 0.00 0.00 0.00 64 1019.6
20220523032404 59 234 6.0 12.0 0.00 0.00 0.00 64 1019.6
20220523031405 59 240 5.0 12.0 0.00 0.00 0.00 64 1019.6
20220523030404 59 222 4.0 10.0 0.00 0.00 0.00 65 1019.8
20220523025405 60 273 4.0 11.0 0.00 0.00 0.00 64 1019.7
20220523024405 60 219 4.0 10.0 0.00 0.00 0.00 62 1019.8
20220523023402 60 218 4.0 10.0 0.00 0.00 0.00 62 1019.9
20220523022404 60 255 3.0 10.0 0.00 0.00 0.00 61 1019.8
20220523021406 61 277 3.0 9.0 0.00 0.00 0.00 60 1019.6
20220523020404 61 306 4.0 9.0 0.00 0.00 0.00 58 1019.7
20220523015402 62 236 3.0 11.0 0.00 0.00 0.00 57 1019.8
20220523014404 62 281 4.0 11.0 0.00 0.00 0.00 56 1019.8
20220523013402 63 246 3.0 9.0 0.00 0.00 0.00 55 1019.8
20220523012401 64 294 4.0 13.0 0.00 0.00 0.00 55 1019.7
20220523011400 64 306 4.0 8.0 0.00 0.00 0.00 55 1019.8
20220523010400 65 279 4.0 8.0 0.00 0.00 0.00 52 1019.9
20220523005402 65 252 5.0 11.0 0.00 0.00 0.00 52 1019.9
20220523004400 66 269 5.0 10.0 0.00 0.00 0.00 49 1020.0
20220523003359 66 269 4.0 11.0 0.00 0.00 0.00 48 1019.8
20220523002359 66 293 5.0 11.0 0.00 0.00 0.00 46 1019.8
20220523001358 66 305 5.0 11.0 0.00 0.00 0.00 45 1019.6
20220523000358 67 249 4.0 11.0 0.00 0.00 0.00 47 1019.6
20220522235358 67 219 4.0 9.0 0.00 0.00 0.00 47 1019.7
20220522234400 67 285 4.0 10.0 0.00 0.00 0.00 47 1019.7
20220522233359 68 306 5.0 10.0 0.00 0.00 0.00 48 1019.7
20220522232357 69 304 5.0 10.0 0.00 0.00 0.00 46 1019.7
20220522231355 71 240 4.0 11.0 0.00 0.00 0.00 46 1019.6
20220522230359 72 263 4.0 11.0 0.00 0.00 0.00 45 1019.6
20220522225356 72 275 3.0 6.0 0.00 0.00 0.00 39 1019.6
20220522224353 73 44 2.0 7.0 0.00 0.00 0.00 34 1019.7
20220522223352 73 224 3.0 6.0 0.00 0.00 0.00 38 1019.8
20220522222351 73 280 2.0 4.0 0.00 0.00 0.00 35 1019.8
20220522221352 73 261 2.0 7.0 0.00 0.00 0.00 35 1020.0
20220522220352 73 278 2.0 7.0 0.00 0.00 0.00 33 1020.1
20220522215352 71 168 2.0 5.0 0.00 0.00 0.00 37 1020.3
20220522214351 71 168 2.0 5.0 0.00 0.00 0.00 37 1020.6
20220522213352 71 283 2.0 4.0 0.00 0.00 0.00 29 1020.7
20220522212354 71 22 1.0 4.0 0.00 0.00 0.00 31 1020.6
20220522211350 70 19 2.0 6.0 0.00 0.00 0.00 29 1020.7
20220522210350 70 10 3.0 7.0 0.00 0.00 0.00 36 1020.8
20220522205349 71 312 1.0 4.0 0.00 0.00 0.00 44 1020.8
20220522204348 70 106 1.0 3.0 0.00 0.00 0.00 38 1020.9
20220522203344 70 254 2.0 4.0 0.00 0.00 0.00 38 1021.0
20220522202346 69 111 1.0 4.0 0.00 0.00 0.00 43 1021.1
20220522201343 69 158 2.0 5.0 0.00 0.00 0.00 45 1021.0
20220522200344 69 164 2.0 6.0 0.00 0.00 0.00 51 1021.2
20220522195344 68 5 2.0 5.0 0.00 0.00 0.00 51 1021.3
20220522194348 68 32 1.0 5.0 0.00 0.00 0.00 47 1021.4
20220522193344 67 13 2.0 5.0 0.00 0.00 0.00 50 1021.5
20220522192344 66 298 3.0 5.0 0.00 0.00 0.00 54 1021.5
20220522191343 66 36 2.0 4.0 0.00 0.00 0.00 53 1021.6
20220522190343 65 26 3.0 7.0 0.00 0.00 0.00 50 1021.7
20220522185343 65 292 2.0 9.0 0.00 0.00 0.00 58 1021.8
20220522184345 65 30 2.0 9.0 0.00 0.00 0.00 59 1021.9
20220522183345 64 180 2.0 7.0 0.00 0.00 0.00 61 1021.8
20220522182343 64 25 2.0 5.0 0.00 0.00 0.00 58 1021.7
20220522181343 63 56 3.0 5.0 0.00 0.00 0.00 61 1021.7
20220522180343 64 30 1.0 7.0 0.00 0.00 0.00 64 1021.7
20220522175343 63 41 2.0 4.0 0.00 0.00 0.00 64 1021.7
20220522174344 62 5 2.0 5.0 0.00 0.00 0.00 64 1021.8
20220522173345 62 355 2.0 4.0 0.00 0.00 0.00 68 1021.8
20220522172341 62 28 2.0 5.0 0.00 0.00 0.00 69 1022.0
20220522171341 61 61 2.0 4.0 0.00 0.00 0.00 66 1022.1
20220522170342 61 41 2.0 4.0 0.00 0.00 0.00 68 1022.1
20220522165341 60 140 1.0 4.0 0.00 0.00 0.00 70 1022.2
20220522164337 59 269 2.0 7.0 0.00 0.00 0.00 70 1022.3
20220522163337 59 127 1.0 3.0 0.00 0.00 0.00 73 1022.4
20220522162342 58 135 1.0 2.0 0.00 0.00 0.00 75 1022.3
20220522161341 58 51 1.0 4.0 0.00 0.00 0.00 75 1022.4
20220522160336 56 36 1.0 3.0 0.00 0.00 0.00 78 1022.3
20220522155335 55 17 0.0 3.0 0.00 0.00 0.00 81 1022.4
20220522154337 53 235 1.0 2.0 0.00 0.00 0.00 83 1022.4
20220522153334 52 229 0.0 2.0 0.00 0.00 0.00 88 1022.5
20220522152334 50 229 1.0 3.0 0.00 0.00 0.00 90 1022.5
20220522151334 49 325 1.0 2.0 0.00 0.00 0.00 93 1022.6
20220522150333 47 325 1.0 3.0 0.00 0.00 0.00 93 1022.5
20220522145331 46 243 2.0 5.0 0.00 0.00 0.00 93 1022.5
20220522144333 46 244 1.0 3.0 0.00 0.00 0.00 93 1022.5
20220522143333 45 279 1.0 4.0 0.00 0.00 0.00 93 1022.5
20220522142330 44 288 1.0 3.0 0.00 0.00 0.00 93 1022.4
20220522141329 44 251 1.0 3.0 0.00 0.00 0.00 93 1022.3
20220522140332 43 246 2.0 5.0 0.00 0.00 0.00 93 1022.3
20220522135329 43 254 1.0 6.0 0.00 0.00 0.00 93 1022.2
20220522134329 43 264 1.0 3.0 0.00 0.00 0.00 93 1022.2
20220522133330 43 234 1.0 4.0 0.00 0.00 0.00 93 1022.1
20220522132327 43 245 2.0 6.0 0.00 0.00 0.00 93 1022.1
20220522131331 42 263 0.0 7.0 0.00 0.00 0.00 93 1022.1
20220522130328 42 229 0.0 0.0 0.00 0.00 0.00 93 1022.1
20220522125327 42 241 0.0 2.0 0.00 0.00 0.00 93 1022.1
20220522124327 42 240 1.0 4.0 0.00 0.00 0.00 93 1022.0
20220522123327 42 241 0.0 3.0 0.00 0.00 0.00 93 1022.0
20220522122332 42 259 0.0 3.0 0.00 0.00 0.00 93 1021.9
20220522121327 42 240 0.0 0.0 0.00 0.00 0.00 93 1021.9
20220522120327 42 271 0.0 0.0 0.00 0.00 0.00 92 1021.8
20220522115326 42 253 0.0 0.0 0.00 0.00 0.00 92 1021.9
20220522114327 42 260 0.0 0.0 0.00 0.00 0.00 92 1021.8
20220522113325 42 260 0.0 0.0 0.00 0.00 0.00 92 1021.8
20220522112323 43 260 0.0 0.0 0.00 0.00 0.00 92 1021.7
20220522111322 43 248 0.0 0.0 0.00 0.00 0.00 92 1021.6